Regional Weather Roundup
Issued by NWS Jackson, KY

Home | Current Version | Previous Version | Text Only | Print | Product List | Glossary On
Versions: 1 2 3 4 5 6 7 8 9 10 11 12 13 14 15 16 17 18 19 20 21 22 23 24 25 26 27 28 29 30 31 32 33 34 35 36 37 38 39 40 41 42 43 44 45 46 47 48 49 50
000
ASUS43 KJKL 230519
RWRJKL

EAST KENTUCKY HOURLY WEATHER ROUNDUP
NATIONAL WEATHER SERVICE JACKSON KY
100 AM EDT SAT AUG 23 2014

NOTE: "FAIR" INDICATES FEW OR NO CLOUDS BELOW 12,000 FEET WITH
NO SIGNIFICANT WEATHER AND/OR OBSTRUCTIONS TO VISIBILITY.

* THESE REPORTS ARE NOT UNDER NWS QUALITY CONTROL AND MAY NOT
  REPORT WEATHER SUCH AS PRECIPITATION AND FOG.

KYZ079-080-083-085-087-088-110-112-115-119-120-230600
...EASTERN KENTUCKY...

CITY           SKY/WX    TMP DP  RH WIND       PRES   REMARKS
JACKSON        CLOUDY    71  69  93 CALM      30.05S
LONDON         CLOUDY    78  72  81 CALM      30.04F
SOMERSET*      CLOUDY    73  73 100 CALM      30.04S
MONTICELLO*    CLOUDY    73  72  97 CALM      30.05F
WILLIAMSBURG*  CLEAR     73  73 100 CALM      30.04F
MIDDLESBORO*   CLOUDY    73  71  95 CALM      30.05F
HARLAN APT*    CLOUDY    72  72 100 MISG      30.06F
HAZARD APT*    CLOUDY    72  72 100 CALM      30.05F FOG
BLACK MTN*       N/A     66  66 100 SW2         N/A
PIKEVILLE APT* FOG       70  70 100 S3        30.05F VSB 3/4
BIG SANDY*     CLOUDY    72  71  98 S6        30.04S
MOREHEAD APT*  FOG       72  70  94 CALM      30.04R VSB 1/2
ASHLAND*         N/A    N/A N/A N/A CALM        N/A
$$

KYZ035-036-041-042-044-050-067-078-099-230600
...CENTRAL KENTUCKY...

CITY           SKY/WX    TMP DP  RH WIND       PRES   REMARKS
MT STERLING*   MOCLDY    72  70  94 CALM      30.03F
FLEMING/MASON* CLOUDY    72  72 100 W3        30.02F FOG
DANVILLE*      CLOUDY    72  70  94 CALM      30.04F
RICHMOND*      CLOUDY    72  70  94 CALM      30.03F
LEXINGTON      MOCLDY    74  70  87 SW3       30.02F
FRANKFORT      MOCLDY    72  69  90 CALM      30.01F
$$

KYZ091>093-OHZ055-061-077-WVZ005-015-034-035-042-230600
...SOUTHERN OHIO/WEST VIRGINIA...

CITY           SKY/WX    TMP DP  RH WIND       PRES   REMARKS
COVINGTON      CLOUDY    77  71  82 CALM      30.01S
COLUMBUS       PTCLDY    75  71  87 CALM      29.98F
DAYTON         PTCLDY    73  71  93 CALM      30.02F
WILMINGTON     FOG       70  69  97 CALM      30.01F VSB 3/4
HUNTINGTON     CLOUDY    71  71 100 SW3       29.99F
CHARLESTON     MOCLDY    72  71  97 SW5       30.00F
PINEVILLE*     CLOUDY    70  70 100 MISG      30.11S
BECKLEY        CLOUDY    68  66  93 SW7       30.08F
BLUEFIELD      CLOUDY    69  65  86 W8        30.11F
$$

VAZ002-007-008-TNZ017-027-036-066-071-230600
...SOUTHWEST VIRGINIA/EAST TENNESSEE...

CITY           SKY/WX    TMP DP  RH WIND       PRES   REMARKS
WISE*          CLOUDY    68  68 100 CALM      30.14F THUNDER
JONESVILLE*      N/A     70  70 100 N3        30.08F
ABINGDON*      LGT RAIN  70  70  99 W6        30.10F
BRISTOL        RAIN      71  67  87 W3        30.08F FOG
KNOXVILLE      MOCLDY    75  71  87 CALM      30.03F
OAK RIDGE      MOCLDY    76  73  91 CALM      30.05F
CROSSVILLE     PTCLDY    72  69  90 W3        30.10F
NASHVILLE      CLEAR     78  74  87 CALM      30.02F
$$

...KEY TO REMARKS...
VSB - VISIBILITY IN MILES
WCI - WIND CHILL INDEX
HX  - HEAT INDEX

$$


USA.gov is the U.S. government's official web portal to all federal, state and local government web resources and services.